Regional Weather Roundup
Issued by NWS

Home | Current Version | Previous Version | Text Only | Print | Product List | Glossary On
Versions: 1 2 3 4 5 6 7 8 9 10 11 12 13 14 15 16 17 18 19 20 21 22 23 24 25 26 27 28 29 30 31 32 33 34 35 36 37 38 39 40 41 42 43 44 45 46 47 48 49 50
000
ASUS44 KFWD 280515
RWRTX
NORTH TEXAS HOURLY WEATHER ROUNDUP
NATIONAL WEATHER SERVICE FORT WORTH TX
1200 AM CDT SUN AUG 28 2016

NOTE: "FAIR" INDICATES FEW OR NO CLOUDS BELOW 12,000 FEET WITH NO
SIGNIFICANT WEATHER AND/OR OBSTRUCTIONS TO VISIBILITY.

TXZ118-119-280600-
DALLAS/FORT WORTH METROPLEX

CITY           SKY/WX    TMP DP  RH WIND       PRES   REMARKS
DFW AIRPORT    MOCLDY    81  70  69 SE8       30.00R
DALLAS LOVE    MOCLDY    82  71  69 SE8         N/A
FTW MEACHAM    CLOUDY    82  69  64 SE12      30.02R
DAL-EXECUTIVE  CLEAR     80  73  79 SE9       30.01S
FTW-ALLIANCE   CLOUDY    78  69  73 S3        30.02R
FTW-SPINKS     PTCLDY    76  71  84 S3        30.04R
ARLINGTON      CLEAR     79  70  74 SE8       30.02R
GRAND PRAIRIE  PTCLDY    80  69  70 SE3       30.03R
ADDISON        CLOUDY    82  73  72 SE8       30.03R
MESQUITE       PTCLDY    75  73  94 SE3       30.02R
LANCASTER      CLEAR     79  72  77 SE5       30.02S
$$

TXZ091>094-102>105-117-120-121-131>134-280600-
NORTH CENTRAL TEXAS

CITY           SKY/WX    TMP DP  RH WIND       PRES   REMARKS
SHRMAN/DENISON CLEAR     80  72  78 E5        30.04S
GAINESVILLE      N/A     76  70  81 SE5       30.06R
BOWIE          CLEAR     76  70  82 CALM      30.06R
BRIDGEPORT     PTCLDY    77  71  83 S3        30.05R
DECATUR        CLEAR     77  67  71 SE6       30.05R
DENTON         CLOUDY    78  70  76 S3        30.02R
MCKINNEY       PTCLDY    78  73  84 SE5       30.01S
GREENVILLE     PTCLDY    77  72  83 SE5       30.03R
ROCKWALL       PTCLDY    78  74  87 SE6       30.01F
TERRELL        PTCLDY    78  72  81 SE7       30.03R
WAXAHACHIE     CLEAR     77  72  86 CALM      30.03S
CLEBURNE       PTCLDY    79  73  83 E7        30.05R
GRANBURY       PTCLDY    80  68  66 SE7       30.04R
$$

TXZ083>090-098>101-113>116-127>130-139>142-154-155-280600-
WESTERN NORTH TEXAS

CITY           SKY/WX    TMP DP  RH WIND       PRES   REMARKS
WICHITA FALLS  PTCLDY    73  69  87 NE6       30.04R
WF-KICKAPOO    CLOUDY    75  69  83 CALM      30.05R
VERNON         CLOUDY    72  63  74 CALM      30.06S
ABILENE        CLEAR     73  69  87 SE3       30.06R
ABILENE-DYESS  MOCLDY    73  68  83 S5        30.04S
CISCO          CLEAR     73  70  88 SE8       30.06S
BRECKENRIDGE   CLEAR     76  72  86 SE7       30.03S
GRAHAM         CLEAR     73  73 100 CALM      30.03R
MINERAL WELLS  PTCLDY    75  71  87 SE6       30.02R
STEPHENVILLE   CLEAR     76  69  78 SE5       30.07S
COMANCHE       CLEAR     74  74 100 SE5       30.05S
BROWNWOOD      CLEAR     73  70  88 E3        30.05R
COLEMAN        PTCLDY    77  69  76 CALM      30.06R
$$

TXZ143>147-156>162-174-175-280600-
CENTRAL TEXAS

CITY           SKY/WX    TMP DP  RH WIND       PRES   REMARKS
WACO           PTCLDY    78  72  81 SE8       30.01S
WACO-MCGREGOR  CLEAR     79  73  82 SE8         N/A
HILLSBORO      CLEAR     77  71  81 E7        30.02S
CORSICANA      CLEAR     78  71  79 SE9       30.03S
MEXIA          CLEAR     75  73  94 S8        30.01F
HEARNE         CLEAR     75  70  85 MISG      30.02S
CAMERON        CLOUDY    77  71  80 CALM      30.01F
TEMPLE         PTCLDY    78  71  79 SE9       30.03R
KILLEEN        CLEAR     79  71  78 E8        30.02R
KILLEEN-SKYLRK CLEAR     79  72  79 SE8       30.03R
FORT HOOD      CLEAR     78  70  76 SE10      30.00S
GATESVILLE     CLEAR     77  72  83 CALM      30.05R
HAMILTON       CLEAR     75  72  89 SW5       30.05R
LAMPASAS       CLEAR     76  72  88 CALM      30.04R
$$

TXZ095>097-106>112-122>126-135>138-148>153-164>167-280600-
EAST TEXAS

CITY           SKY/WX    TMP DP  RH WIND       PRES   REMARKS
PARIS          CLOUDY    75  72  88 E7        30.03S
SULPHUR SPRNGS CLEAR     78  71  79 S9G16     30.05R
MOUNT PLEASANT PTCLDY    75  75 100 CALM      30.04F
GILMER         PTCLDY    74  71  90 CALM      30.03F
TYLER          CLOUDY    76  72  87 SE8       30.03S
LONGVIEW       CLOUDY    73  71  93 S5        30.02S
MARSHALL       CLOUDY    71  68  92 CALM      30.05S
ATHENS         CLOUDY    73  73 100 SE5       30.02R
PALESTINE      CLOUDY    75  73  91 E5        30.03S
JACKSONVILLE   CLOUDY    74  71  92 CALM      30.06S
HENDERSON      MOCLDY    71  71  99 CALM      30.04F
CENTER         CLOUDY    74  73  95 CALM      30.03R
NACOGDOCHES    CLOUDY   N/A N/A N/A MISG      30.01R
LUFKIN         CLOUDY    74  72  93 CALM      30.00F
$$

SUPPLEMENTAL OBSERVATIONS (CENTRAL)

CITY           SKY/WX    TMP DP  RH WIND       PRES   REMARKS
DENISON DAM      N/A     75  70  83 E2          N/A
CADDO GRASSLND   N/A     75  70  83 E1          N/A
PAT MAYSE LAKE   N/A     79  75  89 E2          N/A
GREENVILLE       N/A     77  73  88 SE5         N/A
CEDAR HILL       N/A     79  72  78 SE3         N/A
ATHENS           N/A     77  73  88 SE8         N/A
LAKE LIMESTONE   N/A     75  72  88 E3          N/A
MCGREGOR         N/A     77  72  83 SE6         N/A
TEMPLE           N/A     79  70  73 E7          N/A
$$

SUPPLEMENTAL OBSERVATIONS (WEST)

CITY           SKY/WX    TMP DP  RH WIND       PRES   REMARKS
POSSUM KINGDOM   N/A     75  72  88 E3          N/A
LBJ GRASSLAND    N/A     79  68  69 CALM        N/A
GRANBURY         N/A     81  70  69 SE7         N/A
COMANCHE         N/A     73  70  88 S3          N/A
HAMBY            N/A     73  66  78 SE3         N/A
IVIE RESERVOIR   N/A     75  66  73 CALM        N/A
COLORADO BEND    N/A     75  68  78 S3          N/A
$$

SUPPLEMENTAL OBSERVATIONS (EAST)

CITY           SKY/WX    TMP DP  RH WIND       PRES   REMARKS
CLARKSVILLE      N/A     77  73  88 SE3         N/A
TEXARKANA        N/A     73  72  94 CALM        N/A
LINDEN           N/A     75  72  88 S1          N/A
CADDO LAKE       N/A     73  68  83 CALM        N/A
GILMER           N/A     75  72  88 S1          N/A
HENDERSON        N/A     72  68  88 CALM        N/A
N SABINE NF      N/A     73  72  94 MISG        N/A
S SABINE NF      N/A     73  72  94 W1          N/A
$$

SUPPLEMENTAL OBSERVATIONS ARE A COLLECTION OF AUTOMATED INSTRUMENTS
THAT ARE MAINTAINED BY A VARIETY OF FEDERAL AND STATE AGENCIES.
CERTAIN ELEMENTS...SUCH AS HUMIDITY VALUES AND SUSTAINED WIND
SPEEDS...MAY BE APPROXIMATED.





USA.gov is the U.S. government's official web portal to all federal, state and local government web resources and services.